Year,Month,Day,Hour,Minute,Value (Times are PST for temperature in C)
2017,11,23,00,00,13.60
2017,11,23,00,01,13.60
2017,11,23,00,02,13.60
2017,11,23,00,03,13.50
2017,11,23,00,04,13.50
2017,11,23,00,05,13.50
2017,11,23,00,06,13.40
2017,11,23,00,07,13.40
2017,11,23,00,08,13.40
2017,11,23,00,09,13.40
2017,11,23,00,10,13.40
2017,11,23,00,11,13.40
2017,11,23,00,12,13.30
2017,11,23,00,13,13.30
2017,11,23,00,14,13.30
2017,11,23,00,15,13.30
2017,11,23,00,16,13.30
2017,11,23,00,17,13.30
2017,11,23,00,18,13.30
2017,11,23,00,19,13.20
2017,11,23,00,20,13.20
2017,11,23,00,21,13.20
2017,11,23,00,22,13.20
2017,11,23,00,23,13.20
2017,11,23,00,24,13.20
2017,11,23,00,25,13.20
2017,11,23,00,26,13.20
2017,11,23,00,27,13.20
2017,11,23,00,28,13.20
2017,11,23,00,29,13.20
2017,11,23,00,30,13.20
2017,11,23,00,31,13.20
2017,11,23,00,32,13.20
2017,11,23,00,33,13.20
2017,11,23,00,34,13.20
2017,11,23,00,35,13.20
2017,11,23,00,36,13.30
2017,11,23,00,37,13.30
2017,11,23,00,38,13.30
2017,11,23,00,39,13.30
2017,11,23,00,40,13.30
2017,11,23,00,41,13.30
2017,11,23,00,42,13.30
2017,11,23,00,43,13.30
2017,11,23,00,44,13.30
2017,11,23,00,45,13.40
2017,11,23,00,46,13.40
2017,11,23,00,47,13.40
2017,11,23,00,48,13.30
2017,11,23,00,49,13.30
2017,11,23,00,50,13.40
2017,11,23,00,51,13.30
2017,11,23,00,52,13.30
2017,11,23,00,53,13.30
2017,11,23,00,54,13.40
2017,11,23,00,55,13.40
2017,11,23,00,56,13.40
2017,11,23,00,57,13.40
2017,11,23,00,58,13.40
2017,11,23,00,59,13.40
2017,11,23,01,00,13.40
2017,11,23,01,01,13.40
2017,11,23,01,02,13.40
2017,11,23,01,03,13.30
2017,11,23,01,04,13.30
2017,11,23,01,05,13.30
2017,11,23,01,06,13.30
2017,11,23,01,07,13.30
2017,11,23,01,08,13.30
2017,11,23,01,09,13.30
2017,11,23,01,10,13.30
2017,11,23,01,11,13.30
2017,11,23,01,12,13.30
2017,11,23,01,13,13.30
2017,11,23,01,14,13.30
2017,11,23,01,15,13.30
2017,11,23,01,16,13.40
2017,11,23,01,17,13.30
2017,11,23,01,18,13.30
2017,11,23,01,19,13.30
2017,11,23,01,20,13.30
2017,11,23,01,21,13.30
2017,11,23,01,22,13.30
2017,11,23,01,23,13.30
2017,11,23,01,24,13.30
2017,11,23,01,25,13.30
2017,11,23,01,26,13.30
2017,11,23,01,27,13.30
2017,11,23,01,28,13.30
2017,11,23,01,29,13.30
2017,11,23,01,30,13.30
2017,11,23,01,31,13.30
2017,11,23,01,32,13.30
2017,11,23,01,33,13.30
2017,11,23,01,34,13.30
2017,11,23,01,35,13.30
2017,11,23,01,36,13.30
2017,11,23,01,37,13.30
2017,11,23,01,38,13.30
2017,11,23,01,39,13.30
2017,11,23,01,40,13.30
2017,11,23,01,41,13.30
2017,11,23,01,42,13.30
2017,11,23,01,43,13.30
2017,11,23,01,44,13.30
2017,11,23,01,45,13.30
2017,11,23,01,46,13.30
2017,11,23,01,47,13.30
2017,11,23,01,48,13.30
2017,11,23,01,49,13.30
2017,11,23,01,50,13.30
2017,11,23,01,51,13.30
2017,11,23,01,52,13.30
2017,11,23,01,53,13.30
2017,11,23,01,54,13.30
2017,11,23,01,55,13.20
2017,11,23,01,56,13.20
2017,11,23,01,57,13.20
2017,11,23,01,58,13.20
2017,11,23,01,59,13.20
2017,11,23,02,00,13.20
2017,11,23,02,01,13.20
2017,11,23,02,02,13.20
2017,11,23,02,03,13.20
2017,11,23,02,04,13.20
2017,11,23,02,05,13.20
2017,11,23,02,06,13.20
2017,11,23,02,07,13.20
2017,11,23,02,08,13.20
2017,11,23,02,09,13.20
2017,11,23,02,10,13.20
2017,11,23,02,11,13.20
2017,11,23,02,12,13.20
2017,11,23,02,13,13.20
2017,11,23,02,14,13.20
2017,11,23,02,15,13.20
2017,11,23,02,16,13.20
2017,11,23,02,17,13.10
2017,11,23,02,18,13.10
2017,11,23,02,19,13.10
2017,11,23,02,20,13.10
2017,11,23,02,21,13.10
2017,11,23,02,22,13.10
2017,11,23,02,23,13.10
2017,11,23,02,24,13.10
2017,11,23,02,25,13.10
2017,11,23,02,26,13.10
2017,11,23,02,27,13.10
2017,11,23,02,28,13.10
2017,11,23,02,29,13.10
2017,11,23,02,30,13.10
2017,11,23,02,31,13.10
2017,11,23,02,32,13.00
2017,11,23,02,33,13.00
2017,11,23,02,34,13.00
2017,11,23,02,35,13.00
2017,11,23,02,36,13.00
2017,11,23,02,37,13.00
2017,11,23,02,38,13.00
2017,11,23,02,39,13.10
2017,11,23,02,40,13.10
2017,11,23,02,41,13.10
2017,11,23,02,42,13.10
2017,11,23,02,43,13.10
2017,11,23,02,44,13.10
2017,11,23,02,45,13.10
2017,11,23,02,46,13.10
2017,11,23,02,47,13.10
2017,11,23,02,48,13.10
2017,11,23,02,49,13.10
2017,11,23,02,50,13.10
2017,11,23,02,51,13.10
2017,11,23,02,52,13.10
2017,11,23,02,53,13.10
2017,11,23,02,54,13.10
2017,11,23,02,55,13.10
2017,11,23,02,56,13.10
2017,11,23,02,57,13.10
2017,11,23,02,58,13.10
2017,11,23,02,59,13.10
2017,11,23,03,00,13.10
2017,11,23,03,01,13.10
2017,11,23,03,02,13.20
2017,11,23,03,03,13.20
2017,11,23,03,04,13.20
2017,11,23,03,05,13.20
2017,11,23,03,06,13.20
2017,11,23,03,07,13.20
2017,11,23,03,08,13.20
2017,11,23,03,09,13.20
2017,11,23,03,10,13.20
2017,11,23,03,11,13.20
2017,11,23,03,12,13.20
2017,11,23,03,13,13.20
2017,11,23,03,14,13.20
2017,11,23,03,15,13.20
2017,11,23,03,16,13.20
2017,11,23,03,17,13.20
2017,11,23,03,18,13.20
2017,11,23,03,19,13.20
2017,11,23,03,20,13.20
2017,11,23,03,21,13.20
2017,11,23,03,22,13.20
2017,11,23,03,23,13.20
2017,11,23,03,24,13.20
2017,11,23,03,25,13.20
2017,11,23,03,26,13.20
2017,11,23,03,27,13.10
2017,11,23,03,28,13.10
2017,11,23,03,29,13.10
2017,11,23,03,30,13.10
2017,11,23,03,31,13.10
2017,11,23,03,32,13.10
2017,11,23,03,33,13.10
2017,11,23,03,34,13.10
2017,11,23,03,35,13.10
2017,11,23,03,36,13.10
2017,11,23,03,37,13.10
2017,11,23,03,38,13.10
2017,11,23,03,39,13.10
2017,11,23,03,40,13.10
2017,11,23,03,41,13.10
2017,11,23,03,42,13.10
2017,11,23,03,43,13.10
2017,11,23,03,44,13.10
2017,11,23,03,45,13.10
2017,11,23,03,46,13.00
2017,11,23,03,47,13.00
2017,11,23,03,48,13.00
2017,11,23,03,49,13.00
2017,11,23,03,50,13.00
2017,11,23,03,51,13.00
2017,11,23,03,52,13.00
2017,11,23,03,53,13.00
2017,11,23,03,54,12.90
2017,11,23,03,55,12.90
2017,11,23,03,56,13.00
2017,11,23,03,57,12.90
2017,11,23,03,58,12.90
2017,11,23,03,59,12.90
2017,11,23,04,00,12.90
2017,11,23,04,01,12.90
2017,11,23,04,02,12.90
2017,11,23,04,03,12.90
2017,11,23,05,04,12.20
2017,11,23,05,05,12.20
2017,11,23,05,06,12.20
2017,11,23,05,07,12.20
2017,11,23,10,12,10.10
2017,11,23,10,13,10.10
2017,11,23,10,14,10.10
2017,11,23,10,15,10.10
2017,11,23,10,16,10.10
2017,11,23,10,17,10.10
2017,11,23,10,18,10.10
2017,11,23,10,19,10.10
2017,11,23,10,20,10.10
2017,11,23,10,21,10.10
2017,11,23,10,22,10.10
2017,11,23,10,23,10.10
2017,11,23,10,24,10.10
2017,11,23,10,25,10.10
2017,11,23,10,26,10.10
2017,11,23,10,27,10.10
2017,11,23,10,28,10.10
2017,11,23,10,29,10.10
2017,11,23,10,30,10.10
2017,11,23,10,31,10.10
2017,11,23,10,32,10.10
2017,11,23,10,33,10.20
2017,11,23,10,34,10.20
2017,11,23,10,35,10.20
2017,11,23,10,36,10.20
2017,11,23,10,37,10.20
2017,11,23,10,38,10.20
2017,11,23,10,39,10.20
2017,11,23,10,40,10.30
2017,11,23,10,41,10.30
2017,11,23,10,42,10.30
2017,11,23,10,43,10.30
2017,11,23,10,44,10.30
2017,11,23,10,45,10.30
2017,11,23,10,46,10.30
2017,11,23,10,47,10.40
2017,11,23,10,48,10.40
2017,11,23,10,49,10.40
2017,11,23,10,50,10.40
2017,11,23,10,51,10.30
2017,11,23,10,52,10.30
2017,11,23,10,53,10.30
2017,11,23,10,54,10.30
2017,11,23,10,55,10.30
2017,11,23,10,56,10.30
2017,11,23,10,57,10.30
2017,11,23,10,58,10.30
2017,11,23,10,59,10.30
2017,11,23,11,00,10.30
2017,11,23,11,01,10.40
2017,11,23,11,02,10.40
2017,11,23,11,03,10.40
2017,11,23,11,04,10.40
2017,11,23,11,05,10.40
2017,11,23,11,06,10.50
2017,11,23,11,07,10.50
2017,11,23,11,08,10.60
2017,11,23,11,09,10.60
2017,11,23,11,10,10.60
2017,11,23,11,11,10.60
2017,11,23,11,12,10.60
2017,11,23,11,13,10.60
2017,11,23,11,14,10.60
2017,11,23,11,15,10.60
2017,11,23,11,16,10.60
2017,11,23,11,17,10.70
2017,11,23,11,18,10.70
2017,11,23,11,19,10.70
2017,11,23,11,20,10.70
2017,11,23,11,21,10.70
2017,11,23,11,22,10.70
2017,11,23,11,23,10.70
2017,11,23,11,24,10.70
2017,11,23,11,25,10.70
2017,11,23,11,26,10.70
2017,11,23,11,27,10.70
2017,11,23,11,28,10.70
2017,11,23,11,29,10.80
2017,11,23,11,30,10.80
2017,11,23,11,31,10.80
2017,11,23,11,32,10.80
2017,11,23,11,33,10.70
2017,11,23,11,34,10.70
2017,11,23,11,35,10.70
2017,11,23,11,36,10.70
2017,11,23,11,37,10.70
2017,11,23,11,38,10.70
2017,11,23,11,39,10.70
2017,11,23,11,40,10.70
2017,11,23,11,41,10.70
2017,11,23,11,42,10.70
2017,11,23,11,43,10.70
2017,11,23,11,44,10.70
2017,11,23,11,45,10.70
2017,11,23,11,46,10.70
2017,11,23,11,47,10.70
2017,11,23,11,48,10.60
2017,11,23,11,49,10.60
2017,11,23,11,50,10.60
2017,11,23,11,51,10.60
2017,11,23,11,52,10.60
2017,11,23,11,53,10.60
2017,11,23,11,54,10.60
2017,11,23,11,55,10.60
2017,11,23,11,56,10.60
2017,11,23,11,57,10.60
2017,11,23,11,58,10.60
2017,11,23,11,59,10.60
2017,11,23,12,00,10.60
2017,11,23,12,01,10.60
2017,11,23,12,02,10.60
2017,11,23,12,03,10.70
2017,11,23,12,04,10.70
2017,11,23,12,05,10.70
2017,11,23,12,06,10.70
2017,11,23,12,07,10.70
2017,11,23,12,08,10.70
2017,11,23,12,09,10.80
2017,11,23,12,10,10.80
2017,11,23,12,11,10.80
2017,11,23,12,12,10.80
2017,11,23,12,13,10.80
2017,11,23,12,14,10.70
2017,11,23,12,15,10.80
2017,11,23,12,16,10.80
2017,11,23,12,17,10.80
2017,11,23,12,18,10.80
2017,11,23,12,19,10.90
2017,11,23,12,20,10.90
2017,11,23,12,21,10.90
2017,11,23,12,22,11.00
2017,11,23,12,23,11.10
2017,11,23,12,24,11.10
2017,11,23,12,25,11.20
2017,11,23,12,26,11.20
2017,11,23,12,27,11.30
2017,11,23,12,28,11.30
2017,11,23,12,29,11.30
2017,11,23,12,30,11.30
2017,11,23,12,31,11.30
2017,11,23,12,32,11.30
2017,11,23,12,33,11.40
2017,11,23,12,34,11.40
2017,11,23,12,35,11.40
2017,11,23,12,36,11.40
2017,11,23,12,37,11.40
2017,11,23,12,38,11.40
2017,11,23,12,39,11.50
2017,11,23,12,40,11.60
2017,11,23,12,41,11.60
2017,11,23,12,42,11.60
2017,11,23,12,43,11.70
2017,11,23,12,44,11.70
2017,11,23,12,45,11.70
2017,11,23,12,46,11.70
2017,11,23,12,47,11.70
2017,11,23,12,48,11.80
2017,11,23,12,49,11.90
2017,11,23,12,50,11.90
2017,11,23,12,51,11.90
2017,11,23,12,52,11.90
2017,11,23,12,53,12.00
2017,11,23,12,54,12.00
2017,11,23,12,55,12.00
2017,11,23,12,56,11.90
2017,11,23,12,57,11.90
2017,11,23,12,58,11.90
2017,11,23,12,59,11.80
2017,11,23,13,00,11.80
2017,11,23,13,01,11.70
2017,11,23,13,02,11.70
2017,11,23,13,03,11.70
2017,11,23,13,04,11.70
2017,11,23,13,05,11.70
2017,11,23,13,06,11.60
2017,11,23,13,07,11.60
2017,11,23,13,08,11.60
2017,11,23,13,09,11.50
2017,11,23,13,10,11.60
2017,11,23,13,11,11.60
2017,11,23,13,12,11.60
2017,11,23,13,13,11.70
2017,11,23,13,14,11.70
2017,11,23,13,15,11.70
2017,11,23,13,16,11.80
2017,11,23,13,17,11.80
2017,11,23,13,18,11.80
2017,11,23,13,19,11.80
2017,11,23,13,20,11.90
2017,11,23,13,21,12.00
2017,11,23,13,22,12.00
2017,11,23,13,23,12.10
2017,11,23,13,24,12.10
2017,11,23,13,25,12.10
2017,11,23,13,26,12.10
2017,11,23,13,27,12.10
2017,11,23,13,28,12.20
2017,11,23,13,29,12.10
2017,11,23,13,30,12.10
2017,11,23,13,31,12.10
2017,11,23,13,32,12.10
2017,11,23,13,33,12.10
2017,11,23,13,34,12.10
2017,11,23,13,35,12.10
2017,11,23,13,36,12.10
2017,11,23,13,37,12.10
2017,11,23,13,38,12.10
2017,11,23,13,39,12.10
2017,11,23,13,40,12.00
2017,11,23,13,41,12.10
2017,11,23,13,42,12.10
2017,11,23,13,43,12.00
2017,11,23,13,44,12.10
2017,11,23,13,45,12.10
2017,11,23,13,46,12.10
2017,11,23,13,47,12.10
2017,11,23,13,48,12.10
2017,11,23,13,49,12.10
2017,11,23,13,50,12.10
2017,11,23,13,51,12.20
2017,11,23,13,52,12.20
2017,11,23,13,53,12.20
2017,11,23,13,54,12.20
2017,11,23,13,55,12.30
2017,11,23,13,56,12.30
2017,11,23,13,57,12.30
2017,11,23,13,58,12.30
2017,11,23,13,59,12.40
2017,11,23,14,00,12.40
2017,11,23,14,01,12.50
2017,11,23,14,02,12.70
2017,11,23,14,03,12.70
2017,11,23,14,04,12.70
2017,11,23,14,05,12.70
2017,11,23,14,06,12.70
2017,11,23,14,07,12.70
2017,11,23,14,08,12.70
2017,11,23,14,09,12.70
2017,11,23,14,10,12.70
2017,11,23,14,11,12.70
2017,11,23,14,12,12.60
2017,11,23,14,13,12.60
2017,11,23,14,14,12.60
2017,11,23,14,15,12.60
2017,11,23,14,16,12.60
2017,11,23,14,17,12.60
2017,11,23,14,18,12.60
2017,11,23,14,19,12.60
2017,11,23,14,20,12.60
2017,11,23,14,21,12.60
2017,11,23,14,22,12.70
2017,11,23,14,23,12.70
2017,11,23,14,24,12.60
2017,11,23,14,25,12.60
2017,11,23,14,26,12.60
2017,11,23,14,27,12.60
2017,11,23,14,28,12.60
2017,11,23,14,29,12.60
2017,11,23,14,30,12.60
2017,11,23,14,31,12.60
2017,11,23,14,32,12.60
2017,11,23,14,33,12.60
2017,11,23,14,34,12.60
2017,11,23,14,35,12.60
2017,11,23,14,36,12.60
2017,11,23,14,37,12.60
2017,11,23,14,38,12.60
2017,11,23,14,39,12.60
2017,11,23,14,40,12.70
2017,11,23,14,41,12.70
2017,11,23,14,42,12.70
2017,11,23,14,43,12.70
2017,11,23,14,44,12.70
2017,11,23,14,45,12.70
2017,11,23,14,46,12.60
2017,11,23,14,47,12.70
2017,11,23,14,48,12.70
2017,11,23,14,49,12.70
2017,11,23,14,50,12.70
2017,11,23,14,51,12.80
2017,11,23,14,52,12.80
2017,11,23,14,53,12.80
2017,11,23,14,54,12.70
2017,11,23,14,55,12.70
2017,11,23,14,56,12.70
2017,11,23,14,57,12.70
2017,11,23,14,58,12.70
2017,11,23,14,59,12.60
2017,11,23,15,00,12.60
2017,11,23,15,01,12.60
2017,11,23,15,02,12.50
2017,11,23,15,03,12.50
2017,11,23,15,04,12.50
2017,11,23,15,05,12.40
2017,11,23,15,06,12.40
2017,11,23,15,07,12.30
2017,11,23,15,08,12.30
2017,11,23,15,09,12.30
2017,11,23,15,10,12.20
2017,11,23,15,11,12.20
2017,11,23,15,12,12.20
2017,11,23,15,13,12.20
2017,11,23,15,14,12.10
2017,11,23,15,15,12.10
2017,11,23,15,16,12.10
2017,11,23,15,17,12.10
2017,11,23,15,18,12.10
2017,11,23,15,19,12.10
2017,11,23,15,20,12.10
2017,11,23,15,21,12.10
2017,11,23,15,22,12.10
2017,11,23,15,23,12.10
2017,11,23,15,24,12.10
2017,11,23,15,25,12.10
2017,11,23,15,26,12.10
2017,11,23,15,27,12.00
2017,11,23,15,28,12.00
2017,11,23,15,29,12.00
2017,11,23,15,30,11.90
2017,11,23,15,31,11.90
2017,11,23,15,32,11.80
2017,11,23,15,33,11.80
2017,11,23,15,34,11.70
2017,11,23,15,35,11.70
2017,11,23,15,36,11.60
2017,11,23,15,37,11.60
2017,11,23,15,38,11.50
2017,11,23,15,39,11.50
2017,11,23,15,40,11.40
2017,11,23,15,41,11.40
2017,11,23,15,42,11.40
2017,11,23,15,43,11.30
2017,11,23,15,44,11.30
2017,11,23,15,45,11.30
2017,11,23,15,46,11.30
2017,11,23,15,47,11.30
2017,11,23,15,48,11.30
2017,11,23,15,49,11.30
2017,11,23,15,50,11.30
2017,11,23,15,51,11.20
2017,11,23,15,52,11.20
2017,11,23,15,53,11.20
2017,11,23,15,54,11.10
2017,11,23,15,55,11.10
2017,11,23,15,56,11.10
2017,11,23,15,57,11.10
2017,11,23,15,58,11.00
2017,11,23,15,59,11.00
2017,11,23,16,00,10.90
2017,11,23,16,01,10.90
2017,11,23,16,02,10.90
2017,11,23,16,03,10.90
2017,11,23,16,04,10.80
2017,11,23,16,05,10.80
2017,11,23,16,06,10.80
2017,11,23,16,07,10.80
2017,11,23,16,08,10.70
2017,11,23,16,09,10.70
2017,11,23,16,10,10.70
2017,11,23,16,11,10.70
2017,11,23,16,12,10.70
2017,11,23,16,13,10.70
2017,11,23,16,14,10.70
2017,11,23,16,15,10.70
2017,11,23,16,16,10.60
2017,11,23,16,17,10.60
2017,11,23,16,18,10.60
2017,11,23,16,19,10.50
2017,11,23,16,20,10.50
2017,11,23,16,21,10.40
2017,11,23,16,22,10.40
2017,11,23,16,23,10.30
2017,11,23,16,24,10.30
2017,11,23,16,25,10.30
2017,11,23,16,26,10.20
2017,11,23,16,27,10.20
2017,11,23,16,28,10.20
2017,11,23,16,29,10.10
2017,11,23,16,30,10.10
2017,11,23,16,31,10.10
2017,11,23,16,32,10.00
2017,11,23,16,33,10.00
2017,11,23,16,34,9.90
2017,11,23,16,35,9.90
2017,11,23,16,36,9.90
2017,11,23,16,37,9.90
2017,11,23,16,38,9.80
2017,11,23,16,39,9.80
2017,11,23,16,40,9.80
2017,11,23,16,41,9.80
2017,11,23,16,42,9.70
2017,11,23,16,43,9.70
2017,11,23,16,44,9.70
2017,11,23,16,45,9.70
2017,11,23,16,46,9.70
2017,11,23,16,47,9.60
2017,11,23,16,48,9.60
2017,11,23,16,49,9.60
2017,11,23,16,50,9.60
2017,11,23,16,51,9.60
2017,11,23,16,52,9.60
2017,11,23,16,53,9.60
2017,11,23,16,54,9.60
2017,11,23,16,55,9.60
2017,11,23,16,56,9.60
2017,11,23,16,57,9.60
2017,11,23,16,58,9.60
2017,11,23,16,59,9.70
2017,11,23,17,00,9.70
2017,11,23,17,01,9.70
2017,11,23,17,02,9.70
2017,11,23,17,03,9.70
2017,11,23,17,04,9.70
2017,11,23,17,05,9.70
2017,11,23,17,06,9.70
2017,11,23,17,07,9.70
2017,11,23,17,08,9.70
2017,11,23,17,09,9.70
2017,11,23,17,10,9.70
2017,11,23,17,11,9.70
2017,11,23,17,12,9.70
2017,11,23,17,13,9.70
2017,11,23,17,14,9.70
2017,11,23,17,15,9.70
2017,11,23,17,16,9.70
2017,11,23,17,17,9.70
2017,11,23,17,18,9.70
2017,11,23,17,19,9.70
2017,11,23,17,20,9.70
2017,11,23,17,21,9.70
2017,11,23,17,22,9.70
2017,11,23,17,23,9.70
2017,11,23,17,24,9.70
2017,11,23,17,25,9.70
2017,11,23,17,26,9.70
2017,11,23,17,27,9.70
2017,11,23,17,28,9.70
2017,11,23,17,29,9.70
2017,11,23,17,30,9.70
2017,11,23,17,31,9.70
2017,11,23,17,32,9.60
2017,11,23,17,33,9.60
2017,11,23,17,34,9.60
2017,11,23,17,35,9.60
2017,11,23,17,36,9.60
2017,11,23,17,37,9.60
2017,11,23,17,38,9.50
2017,11,23,17,39,9.50
2017,11,23,17,40,9.50
2017,11,23,17,41,9.50
2017,11,23,17,42,9.60
2017,11,23,17,43,9.60
2017,11,23,17,44,9.60
2017,11,23,17,45,9.60
2017,11,23,17,46,9.60
2017,11,23,17,47,9.60
2017,11,23,17,48,9.60
2017,11,23,17,49,9.70
2017,11,23,17,50,9.70
2017,11,23,17,51,9.70
2017,11,23,17,52,9.70
2017,11,23,17,53,9.70
2017,11,23,17,54,9.70
2017,11,23,17,55,9.70
2017,11,23,17,56,9.70
2017,11,23,17,57,9.70
2017,11,23,17,58,9.70
2017,11,23,17,59,9.70
2017,11,23,18,00,9.70
2017,11,23,18,01,9.70
2017,11,23,18,02,9.70
2017,11,23,18,03,9.70
2017,11,23,18,04,9.70
2017,11,23,18,05,9.70
2017,11,23,18,06,9.70
2017,11,23,18,07,9.60
2017,11,23,18,08,9.60
2017,11,23,18,09,9.60
2017,11,23,18,10,9.60
2017,11,23,18,11,9.60
2017,11,23,18,12,9.60
2017,11,23,18,13,9.50
2017,11,23,18,14,9.50
2017,11,23,18,15,9.50
2017,11,23,18,16,9.40
2017,11,23,18,17,9.40
2017,11,23,18,18,9.40
2017,11,23,18,19,9.40
2017,11,23,18,20,9.40
2017,11,23,18,21,9.40
2017,11,23,18,22,9.30
2017,11,23,18,23,9.30
2017,11,23,18,24,9.30
2017,11,23,18,25,9.30
2017,11,23,18,26,9.30
2017,11,23,18,27,9.30
2017,11,23,18,28,9.30
2017,11,23,18,29,9.30
2017,11,23,18,30,9.30
2017,11,23,18,31,9.30
2017,11,23,18,32,9.30
2017,11,23,18,33,9.30
2017,11,23,18,34,9.30
2017,11,23,18,35,9.20
2017,11,23,18,36,9.30
2017,11,23,18,37,9.30
2017,11,23,18,38,9.30
2017,11,23,18,39,9.30
2017,11,23,18,40,9.30
2017,11,23,18,41,9.30
2017,11,23,18,42,9.30
2017,11,23,18,43,9.30
2017,11,23,18,44,9.30
2017,11,23,18,45,9.30
2017,11,23,18,46,9.30
2017,11,23,18,47,9.30
2017,11,23,18,48,9.30
2017,11,23,18,49,9.30
2017,11,23,18,50,9.30
2017,11,23,18,51,9.30
2017,11,23,18,52,9.30
2017,11,23,18,53,9.30
2017,11,23,18,54,9.30
2017,11,23,18,55,9.30
2017,11,23,18,56,9.30
2017,11,23,18,57,9.30
2017,11,23,18,58,9.30
2017,11,23,18,59,9.30
2017,11,23,19,00,9.30
2017,11,23,19,01,9.30
2017,11,23,19,02,9.30
2017,11,23,19,03,9.30
2017,11,23,19,04,9.30
2017,11,23,19,05,9.30
2017,11,23,19,06,9.30
2017,11,23,19,07,9.30
2017,11,23,19,08,9.30
2017,11,23,19,09,9.30
2017,11,23,19,10,9.30
2017,11,23,19,11,9.30
2017,11,23,19,12,9.30
2017,11,23,19,13,9.30
2017,11,23,19,14,9.30
2017,11,23,19,15,9.30
2017,11,23,19,16,9.30
2017,11,23,19,17,9.30
2017,11,23,19,18,9.30
2017,11,23,19,19,9.30
2017,11,23,19,20,9.30
2017,11,23,19,21,9.30
2017,11,23,19,22,9.30
2017,11,23,19,23,9.30
2017,11,23,19,24,9.30
2017,11,23,19,25,9.30
2017,11,23,19,26,9.40
2017,11,23,19,27,9.40
2017,11,23,19,28,9.40
2017,11,23,19,29,9.40
2017,11,23,19,30,9.40
2017,11,23,19,31,9.40
2017,11,23,19,32,9.40
2017,11,23,19,33,9.40
2017,11,23,19,34,9.40
2017,11,23,19,35,9.40
2017,11,23,19,36,9.40
2017,11,23,19,37,9.40
2017,11,23,19,38,9.40
2017,11,23,19,39,9.40
2017,11,23,19,40,9.40
2017,11,23,19,41,9.40
2017,11,23,19,42,9.40
2017,11,23,19,43,9.40
2017,11,23,19,44,9.50
2017,11,23,19,45,9.50
2017,11,23,19,46,9.50
2017,11,23,19,47,9.50
2017,11,23,19,48,9.50
2017,11,23,19,49,9.50
2017,11,23,19,50,9.50
2017,11,23,19,51,9.50
2017,11,23,19,52,9.50
2017,11,23,19,53,9.50
2017,11,23,19,54,9.40
2017,11,23,19,55,9.40
2017,11,23,19,56,9.40
2017,11,23,19,57,9.40
2017,11,23,19,58,9.40
2017,11,23,19,59,9.40
2017,11,23,20,00,9.40
2017,11,23,20,01,9.40
2017,11,23,20,02,9.40
2017,11,23,20,03,9.40
2017,11,23,20,04,9.40
2017,11,23,20,05,9.40
2017,11,23,20,06,9.40
2017,11,23,20,07,9.40
2017,11,23,20,08,9.50
2017,11,23,20,09,9.50
2017,11,23,20,10,9.50
2017,11,23,20,11,9.50
2017,11,23,20,12,9.50
2017,11,23,20,13,9.50
2017,11,23,20,14,9.60
2017,11,23,20,15,9.60
2017,11,23,20,16,9.60
2017,11,23,20,17,9.60
2017,11,23,20,18,9.60
2017,11,23,20,19,9.60
2017,11,23,20,20,9.60
2017,11,23,20,21,9.60
2017,11,23,20,22,9.60
2017,11,23,20,23,9.60
2017,11,23,20,24,9.60
2017,11,23,20,25,9.60
2017,11,23,20,26,9.60
2017,11,23,20,27,9.60
2017,11,23,20,28,9.60
2017,11,23,20,29,9.60
2017,11,23,20,30,9.60
2017,11,23,20,31,9.60
2017,11,23,20,32,9.60
2017,11,23,20,33,9.60
2017,11,23,20,34,9.60
2017,11,23,20,35,9.60
2017,11,23,20,36,9.60
2017,11,23,20,37,9.50
2017,11,23,20,38,9.50
2017,11,23,20,39,9.50
2017,11,23,20,40,9.50
2017,11,23,20,41,9.50
2017,11,23,20,42,9.50
2017,11,23,20,43,9.50
2017,11,23,20,44,9.50
2017,11,23,20,45,9.50
2017,11,23,20,46,9.50
2017,11,23,20,47,9.50
2017,11,23,20,48,9.40
2017,11,23,20,49,9.40
2017,11,23,20,50,9.40
2017,11,23,20,51,9.40
2017,11,23,20,52,9.40
2017,11,23,20,53,9.30
2017,11,23,20,54,9.30
2017,11,23,20,55,9.30
2017,11,23,20,56,9.30
2017,11,23,20,57,9.30
2017,11,23,20,58,9.30
2017,11,23,20,59,9.30
2017,11,23,21,00,9.20
2017,11,23,21,01,9.20
2017,11,23,21,02,9.20
2017,11,23,21,03,9.20
2017,11,23,21,04,9.20
2017,11,23,21,05,9.20
2017,11,23,21,06,9.20
2017,11,23,21,07,9.10
2017,11,23,21,08,9.10
2017,11,23,21,09,9.10
2017,11,23,21,10,9.10
2017,11,23,21,11,9.10
2017,11,23,21,12,9.10
2017,11,23,21,13,9.10
2017,11,23,21,14,9.10
2017,11,23,21,15,9.10
2017,11,23,21,16,9.10
2017,11,23,21,17,9.10
2017,11,23,21,18,9.10
2017,11,23,21,19,9.10
2017,11,23,21,20,9.10
2017,11,23,21,21,9.20
2017,11,23,21,22,9.20
2017,11,23,21,23,9.20
2017,11,23,21,24,9.20
2017,11,23,21,25,9.20
2017,11,23,21,26,9.20
2017,11,23,21,27,9.20
2017,11,23,21,28,9.10
2017,11,23,21,29,9.10
2017,11,23,21,30,9.10
2017,11,23,21,31,9.10
2017,11,23,21,32,9.10
2017,11,23,21,33,9.10
2017,11,23,21,34,9.10
2017,11,23,21,35,9.10
2017,11,23,21,36,9.10
2017,11,23,21,37,9.10
2017,11,23,21,38,9.10
2017,11,23,21,39,9.10
2017,11,23,21,40,9.20
2017,11,23,21,41,9.20
2017,11,23,21,42,9.20
2017,11,23,21,43,9.20
2017,11,23,21,44,9.20
2017,11,23,21,45,9.20
2017,11,23,21,46,9.20
2017,11,23,21,47,9.20
2017,11,23,21,48,9.20
2017,11,23,21,49,9.20
2017,11,23,21,50,9.20
2017,11,23,21,51,9.20
2017,11,23,21,52,9.20
2017,11,23,21,53,9.20
2017,11,23,21,54,9.20
2017,11,23,21,55,9.20
2017,11,23,21,56,9.20
2017,11,23,21,57,9.20
2017,11,23,21,58,9.20
2017,11,23,21,59,9.20
2017,11,23,22,00,9.20
2017,11,23,22,01,9.20
2017,11,23,22,02,9.20
2017,11,23,22,03,9.10
2017,11,23,22,04,9.10
2017,11,23,22,05,9.10
2017,11,23,22,06,9.10
2017,11,23,22,07,9.10
2017,11,23,22,08,9.10
2017,11,23,22,09,9.10
2017,11,23,22,10,9.10
2017,11,23,22,11,9.10
2017,11,23,22,12,9.10
2017,11,23,22,13,9.10
2017,11,23,22,14,9.10
2017,11,23,22,15,9.10
2017,11,23,22,16,9.10
2017,11,23,22,17,9.10
2017,11,23,22,18,9.10
2017,11,23,22,19,9.10
2017,11,23,22,20,9.10
2017,11,23,22,21,9.00
2017,11,23,22,22,9.00
2017,11,23,22,23,9.00
2017,11,23,22,24,9.00
2017,11,23,22,25,9.00
2017,11,23,22,26,9.00
2017,11,23,22,27,9.00
2017,11,23,22,28,8.90
2017,11,23,22,29,8.90
2017,11,23,22,30,8.90
2017,11,23,22,31,8.90
2017,11,23,22,32,8.90
2017,11,23,22,33,8.90
2017,11,23,22,34,8.90
2017,11,23,22,35,8.90
2017,11,23,22,36,8.90
2017,11,23,22,37,8.90
2017,11,23,22,38,8.90
2017,11,23,22,39,8.90
2017,11,23,22,40,8.90
2017,11,23,22,41,9.00
2017,11,23,22,42,9.00
2017,11,23,22,43,9.00
2017,11,23,22,44,8.90
2017,11,23,22,45,8.90
2017,11,23,22,46,8.90
2017,11,23,22,47,8.90
2017,11,23,22,48,8.90
2017,11,23,22,49,8.90
2017,11,23,22,50,8.90
2017,11,23,22,51,8.90
2017,11,23,22,52,8.90
2017,11,23,22,53,8.90
2017,11,23,22,54,8.90
2017,11,23,22,55,8.90
2017,11,23,22,56,8.90
2017,11,23,22,57,8.90
2017,11,23,22,58,8.80
2017,11,23,22,59,8.80
2017,11,23,23,00,8.80
2017,11,23,23,01,8.80
2017,11,23,23,02,8.80
2017,11,23,23,03,8.80
2017,11,23,23,04,8.80
2017,11,23,23,05,8.80
2017,11,23,23,06,8.80
2017,11,23,23,07,8.80
2017,11,23,23,08,8.80
2017,11,23,23,09,8.80
2017,11,23,23,10,8.80
2017,11,23,23,11,8.80
2017,11,23,23,12,8.80
2017,11,23,23,13,8.80
2017,11,23,23,14,8.80
2017,11,23,23,15,8.80
2017,11,23,23,16,8.80
2017,11,23,23,17,8.80
2017,11,23,23,18,8.80
2017,11,23,23,19,8.80
2017,11,23,23,20,8.80
2017,11,23,23,21,8.80
2017,11,23,23,22,8.70
2017,11,23,23,23,8.70
2017,11,23,23,24,8.70
2017,11,23,23,25,8.70
2017,11,23,23,26,8.70
2017,11,23,23,27,8.70
2017,11,23,23,28,8.70
2017,11,23,23,29,8.70
2017,11,23,23,30,8.70
2017,11,23,23,31,8.60
2017,11,23,23,32,8.60
2017,11,23,23,33,8.60
2017,11,23,23,34,8.60
2017,11,23,23,35,8.60
2017,11,23,23,36,8.60
2017,11,23,23,37,8.60
2017,11,23,23,38,8.60
2017,11,23,23,39,8.60
2017,11,23,23,40,8.60
2017,11,23,23,41,8.60
2017,11,23,23,42,8.60